Location: Conflandey
(47.7287°N, 6.0456°E)
Time: 02:04:18
(UTC+00:00)

ATLAS 5 CENTAUR R/B - Pass Details

Date: 24 October 2021
Orbit: 497 x 1159 km, 63.4° (Epoch: 25 November)

Event Time Altitude Azimuth Distance (km) Brightness Sun altitude
Rises 17:48:53 0° 248° (WSW) 2,630 6.3 -13.7°
Reaches altitude 10° 17:51:07 10° 259° (WSW) 1,792 5.3 -14.1°
Maximum altitude 17:54:44 32° 324° (NW) 998 3.0 -14.7°
Drops below altitude 10° 17:58:51 10° 29° (NNE) 2,050 3.9 -15.4°
Enters shadow 17:59:26 - 32° (NNE) 2,270 4.1 -15.5°
